Wind_Speed
55 53 53 55 56 56 56 56 55 54 53 52 51 51 51 51 49 48 48 47 46 45 44 42 41 40 40 39 39 39 38 38 37 37 36 36 35 35 35 35 34 33 33
54 54 54 54 54 55 56 56 56 55 55 54 53 53 52 52 51 50 49 48 47 45 45 45 43 42 41 41 40 40 40 39 39 38 38 37 37 37 37 37 37 36 36
54 55 55 55 54 55 55 55 55 55 55 55 55 55 55 54 53 51 50 49 48 47 47 46 46 45 44 42 42 41 41 41 40 39 39 39 39 38 38 38 38 38 39
55 56 56 55 55 55 55 55 56 55 55 56 56 56 54 54 54 52 51 50 49 48 48 48 48 47 46 44 43 43 43 42 41 40 40 40 40 40 40 40 40 40 40
55 57 56 56 56 56 55 54 55 56 55 55 55 56 55 54 54 54 53 52 51 50 50 49 48 48 48 47 46 45 45 44 42 42 41 41 41 41 41 41 41 41 41
54 55 56 57 57 57 56 55 55 55 55 55 54 54 54 54 54 54 54 54 53 52 51 50 50 50 50 48 47 46 45 44 44 43 43 42 42 43 42 42 42 42 42
53 54 55 55 56 57 58 57 56 56 55 55 55 54 54 54 54 54 53 54 54 53 52 52 52 52 51 50 48 47 47 46 46 45 45 45 45 45 45 45 45 45 45
51 53 54 54 55 56 57 57 56 56 56 56 55 55 54 54 54 54 54 54 55 54 53 53 53 52 52 51 50 49 49 48 47 47 47 47 48 48 47 47 48 48 48
49 52 53 53 54 54 55 56 55 55 56 56 56 55 54 55 55 56 56 55 55 55 54 54 53 53 52 52 52 51 51 50 50 50 50 50 50 49 50 50 49 49 49
47 50 52 53 54 54 54 54 54 54 54 54 54 54 54 53 53 54 55 55 56 55 55 54 54 54 53 53 52 52 52 52 52 51 51 51 50 50 50 51 51 50 50
45 47 50 51 53 53 54 54 53 53 54 54 54 54 54 53 53 53 53 54 55 56 56 56 55 55 54 54 52 52 51 51 51 51 51 51 51 51 51 51 51 51 51
44 45 47 50 52 52 53 54 54 54 54 54 54 53 53 53 53 53 53 54 54 54 55 55 55 55 54 53 53 53 52 52 52 52 52 52 52 52 52 52 52 52 52
40 42 44 47 49 51 52 53 53 53 53 53 54 54 53 53 53 53 54 54 53 53 53 54 54 54 54 53 54 54 54 54 53 54 54 53 53 53 53 53 53 52 52
39 40 42 44 47 48 50 52 52 51 52 52 53 53 53 53 53 52 52 52 52 52 52 53 53 54 55 55 56 56 56 55 55 55 55 54 54 54 54 54 54 53 53
36 38 40 42 44 46 48 49 50 50 50 50 50 50 51 51 51 51 51 51 52 52 52 52 53 53 54 54 55 55 55 55 55 54 54 54 54 53 53 53 53 53 53
35 36 38 40 42 44 46 46 47 48 48 48 48 48 47 47 47 48 49 50 51 51 52 52 52 52 53 54 54 54 55 55 54 54 54 54 53 52 52 52 52 52 53
33 35 38 39 41 42 44 44 45 46 46 47 47 47 47 47 47 47 48 48 49 49 50 50 51 51 52 53 54 54 54 54 54 54 53 53 53 53 53 52 53 53 52
31 34 36 38 40 41 41 42 43 44 44 44 45 45 45 45 46 47 46 46 46 47 47 48 48 48 49 50 51 51 52 52 52 52 52 52 52 52 52 52 52 52 52
30 32 35 36 38 39 39 40 41 42 43 42 41 42 42 42 43 44 44 44 44 44 45 45 45 46 46 47 47 48 48 49 50 51 51 51 51 51 51 51 51 51 51
28 30 32 34 35 37 38 39 40 41 41 40 40 40 40 41 41 42 42 42 42 42 42 42 43 43 44 44 45 46 47 48 48 48 48 48 48 48 48 49 49 48 48
25 27 30 32 33 35 36 37 38 39 40 39 40 40 40 41 41 41 41 41 41 41 41 41 42 43 43 42 43 44 45 45 46 47 47 47 47 46 47 47 47 47 47
25 26 28 30 32 33 34 35 35 37 37 38 39 39 39 40 40 40 40 40 40 40 41 42 43 43 43 43 43 43 43 44 45 45 46 46 46 45 46 46 46 46 47
25 25 26 28 29 31 32 33 34 34 35 36 37 37 38 38 38 39 39 39 40 40 40 41 41 42 42 43 43 43 43 43 44 44 44 44 44 44 45 46 46 46 46
24 25 26 27 28 29 30 31 32 32 33 33 35 36 36 37 37 37 37 38 39 39 39 39 40 40 40 41 42 42 42 42 43 43 43 43 43 43 44 45 45 46 46
23 24 25 26 27 28 29 30 31 31 32 33 34 35 35 36 36 36 36 36 36 37 37 38 38 38 38 39 40 41 41 42 42 43 43 42 43 43 44 44 45 45 45
24 25 25 26 26 26 27 28 30 31 31 32 33 34 35 35 36 36 36 36 36 36 36 36 36 37 37 38 38 39 40 40 41 41 42 42 43 43 44 44 44 44 44
Wind_Direction
229 229 229 229 230 231 231 232 233 233 233 234 235 235 236 238 239 240 241 242 243 245 246 247 248 250 252 254 256 258 260 262 264 266 266 267 267 267 268 270 272 273 274
229 229 229 230 230 231 231 232 233 233 234 235 235 236 236 238 239 240 242 242 243 244 246 247 247 249 251 253 256 258 260 262 264 265 266 266 267 268 268 269 270 271 272
230 229 229 229 230 231 231 231 232 233 233 234 234 235 237 239 239 240 241 242 243 245 246 247 248 249 251 254 256 258 260 262 263 263 264 265 267 268 268 268 270 271 272
230 228 228 229 230 231 231 232 232 233 234 234 234 235 236 238 238 240 241 242 243 244 246 248 249 250 251 253 256 258 259 260 261 262 263 264 266 267 267 269 270 272 273
229 229 229 229 230 231 231 231 232 233 233 235 235 235 235 237 239 240 241 242 243 243 245 247 248 250 252 254 255 256 258 259 261 262 263 263 265 265 266 268 270 271 272
231 230 229 229 230 231 231 232 232 233 234 234 235 236 236 237 238 239 241 242 242 243 244 246 248 250 252 253 254 255 257 259 261 262 262 263 264 265 267 268 270 271 272
231 231 231 230 231 232 232 232 232 233 234 234 235 236 237 238 239 240 241 242 242 243 244 245 247 249 251 252 254 255 257 259 261 262 263 265 266 266 268 268 269 271 272
232 231 231 231 232 232 233 233 234 235 235 234 236 237 238 239 240 242 242 243 243 244 245 246 248 250 251 253 254 255 257 258 260 261 263 264 266 268 269 270 271 272 272
233 232 232 231 232 232 233 234 234 235 236 236 237 239 240 240 241 243 244 245 245 246 248 249 251 252 253 254 254 256 257 257 258 261 262 264 266 267 269 269 271 272 273
234 233 232 231 231 232 233 234 234 235 237 237 238 240 241 241 243 244 245 246 246 246 248 249 251 252 253 253 254 255 256 257 258 260 262 263 264 266 268 269 271 272 273
234 234 232 231 231 231 232 233 235 235 236 238 239 240 241 241 243 245 245 246 246 247 248 250 251 252 252 253 254 255 255 256 258 259 261 263 264 266 267 269 271 272 272
234 232 231 230 229 230 231 233 234 235 236 238 239 240 241 243 244 245 246 247 247 248 249 250 250 252 253 253 253 255 256 257 258 260 261 263 265 266 268 269 270 271 271
233 232 231 229 229 230 231 233 234 235 236 238 239 240 242 243 244 245 247 248 249 249 249 250 250 250 252 253 254 256 257 258 259 261 262 264 265 267 268 269 270 270 271
234 232 231 230 230 230 231 233 234 235 236 237 238 240 242 244 245 246 247 248 248 249 250 251 251 252 252 254 255 256 258 258 260 261 263 264 265 266 268 269 270 270 271
236 234 233 232 232 231 232 233 233 234 237 238 239 240 242 243 245 246 246 247 248 249 250 252 253 252 252 253 254 256 257 258 259 261 262 264 265 266 267 268 269 270 271
237 235 234 233 232 231 231 233 234 235 236 237 239 240 241 243 244 246 247 248 249 250 251 252 253 253 253 253 254 256 257 258 259 260 262 263 264 264 266 267 269 270 272
238 235 233 233 233 232 233 233 234 234 236 238 240 241 242 243 245 246 248 249 250 251 252 253 253 253 254 255 255 256 256 258 259 260 261 262 262 264 266 267 269 271 272
240 236 234 233 233 233 234 234 234 234 236 238 239 241 241 243 244 246 248 249 250 251 252 253 253 253 254 255 256 257 257 257 258 259 260 261 262 264 266 268 270 271 272
240 236 234 234 233 233 233 233 233 234 236 237 240 241 241 242 243 245 247 248 249 251 251 252 253 254 255 256 257 257 258 258 259 260 260 261 262 264 266 268 270 271 272
240 236 234 233 233 233 234 234 234 235 235 237 239 240 241 241 243 245 247 248 249 250 252 253 253 254 256 257 258 258 258 259 260 260 262 263 263 264 266 268 269 271 272
241 238 236 235 234 234 234 234 234 235 236 238 240 241 242 243 244 246 247 248 250 251 252 253 254 255 256 257 258 258 258 259 260 261 262 263 263 265 266 267 269 270 272
242 239 237 237 235 235 234 234 235 235 236 238 239 241 243 245 246 247 249 250 250 251 252 254 255 256 256 256 258 259 259 260 261 261 261 262 263 265 267 267 268 270 272
242 240 238 236 235 234 234 234 235 235 237 237 238 241 243 245 246 248 249 251 252 253 255 255 255 256 257 258 258 259 260 261 261 261 262 263 264 266 267 268 270 271 272
241 239 238 236 236 236 235 235 235 235 236 237 239 241 244 245 246 248 249 251 253 254 254 255 256 256 258 259 259 260 261 262 262 263 264 264 265 267 268 270 271 272 273
241 239 238 236 235 235 235 235 235 235 236 238 240 241 243 244 246 247 249 250 252 253 254 255 256 256 258 259 259 260 261 262 263 263 264 264 266 267 269 271 272 273 274
242 240 239 238 237 236 236 237 238 238 240 241 242 243 244 245 246 247 248 250 251 252 254 255 256 257 258 259 260 261 262 263 263 264 264 265 266 267 269 270 272 273 274
Height
5628 5634 5641 5648 5655 5661 5668 5675 5681 5688 5693 5700 5705 5710 5716 5721 5726 5730 5735 5740 5744 5748 5752 5755 5758 5761 5763 5765 5767 5769 5770 5771 5773 5774 5774 5774 5775 5775 5775 5775 5775 5774 5774
5616 5622 5629 5636 5643 5649 5656 5663 5669 5676 5682 5688 5693 5699 5704 5709 5714 5719 5724 5729 5733 5737 5741 5745 5748 5751 5754 5756 5758 5759 5760 5762 5763 5764 5764 5765 5765 5766 5766 5766 5766 5765 5765
5603 5610 5617 5624 5630 5637 5644 5651 5657 5663 5670 5675 5681 5687 5693 5698 5703 5708 5713 5718 5722 5726 5730 5734 5737 5740 5743 5746 5748 5749 5751 5752 5753 5754 5755 5756 5756 5756 5756 5756 5756 5756 5755
5591 5597 5604 5612 5618 5625 5632 5638 5644 5651 5657 5663 5669 5675 5680 5686 5691 5697 5702 5706 5711 5715 5719 5723 5726 5729 5732 5735 5737 5739 5740 5741 5743 5744 5745 5745 5746 5746 5746 5746 5746 5745 5745
5578 5585 5592 5599 5606 5613 5619 5626 5632 5639 5645 5651 5656 5662 5668 5674 5679 5684 5690 5694 5699 5704 5708 5711 5715 5718 5721 5723 5726 5728 5729 5731 5732 5733 5734 5735 5735 5735 5736 5735 5735 5735 5734
5566 5573 5580 5587 5594 5600 5607 5614 5620 5626 5633 5639 5644 5650 5656 5661 5667 5672 5677 5682 5687 5691 5695 5699 5703 5706 5709 5711 5714 5716 5718 5720 5721 5722 5723 5724 5724 5724 5724 5724 5724 5724 5724
5554 5561 5568 5575 5581 5588 5595 5601 5608 5614 5620 5627 5632 5638 5643 5649 5654 5659 5664 5669 5674 5678 5682 5686 5690 5694 5696 5699 5701 5704 5706 5708 5709 5711 5712 5712 5713 5713 5713 5713 5712 5712 5712
5542 5548 5556 5563 5569 5576 5582 5589 5596 5602 5608 5614 5620 5626 5631 5637 5642 5646 5651 5655 5660 5665 5669 5673 5677 5680 5683 5686 5689 5691 5693 5695 5697 5698 5700 5700 5700 5700 5700 5700 5700 5700 5699
5531 5537 5544 5550 5557 5564 5570 5577 5583 5589 5595 5601 5608 5613 5619 5624 5629 5633 5638 5642 5647 5652 5656 5660 5663 5667 5670 5673 5675 5678 5681 5682 5683 5685 5686 5687 5687 5687 5687 5687 5687 5687 5686
5520 5526 5532 5539 5546 5553 5559 5565 5571 5577 5583 5589 5595 5601 5606 5611 5616 5620 5624 5629 5634 5639 5643 5646 5650 5653 5656 5658 5661 5664 5667 5669 5670 5671 5672 5673 5674 5674 5674 5674 5674 5673 5673
5509 5515 5520 5527 5534 5541 5547 5553 5559 5565 5571 5577 5583 5588 5593 5598 5603 5607 5611 5615 5620 5624 5628 5632 5635 5639 5642 5645 5647 5650 5653 5654 5656 5657 5658 5659 5660 5661 5661 5660 5660 5660 5659
5499 5504 5509 5515 5522 5528 5534 5540 5546 5553 5559 5564 5569 5575 5579 5585 5589 5594 5598 5602 5606 5610 5614 5618 5621 5624 5628 5631 5634 5636 5639 5640 5642 5643 5645 5646 5646 5647 5647 5646 5646 5645 5644
5489 5493 5498 5504 5510 5516 5522 5528 5534 5540 5546 5551 5556 5562 5567 5571 5576 5580 5584 5589 5593 5597 5600 5604 5607 5610 5613 5616 5620 5622 5624 5626 5628 5629 5631 5632 5632 5632 5632 5632 5631 5630 5629
5479 5483 5488 5494 5499 5505 5510 5516 5522 5528 5533 5538 5544 5549 5554 5558 5563 5567 5571 5575 5579 5582 5586 5589 5592 5596 5599 5602 5605 5607 5610 5612 5613 5615 5616 5617 5617 5617 5617 5617 5616 5616 5615
5469 5473 5478 5483 5488 5494 5499 5505 5510 5516 5521 5527 5532 5537 5542 5546 5549 5553 5557 5561 5565 5569 5572 5575 5578 5581 5584 5587 5590 5592 5594 5596 5599 5600 5601 5602 5602 5602 5602 5602 5602 5601 5601
5460 5464 5468 5473 5478 5483 5488 5494 5499 5505 5510 5515 5519 5524 5528 5533 5536 5540 5544 5548 5551 5555 5558 5561 5564 5567 5570 5573 5575 5577 5579 5581 5583 5585 5586 5587 5588 5588 5588 5588 5587 5587 5586
5451 5455 5459 5463 5468 5473 5479 5484 5489 5494 5498 5503 5507 5511 5516 5520 5524 5528 5531 5535 5538 5541 5545 5548 5551 5553 5555 5558 5560 5563 5565 5567 5568 5570 5571 5572 5572 5573 5573 5573 5573 5572 5572
5443 5446 5450 5454 5458 5463 5469 5474 5479 5483 5488 5492 5496 5500 5504 5508 5512 5516 5519 5523 5526 5528 5532 5534 5537 5539 5541 5543 5546 5548 5550 5551 5553 5555 5556 5557 5558 5558 5558 5559 5558 5558 5557
5434 5437 5441 5445 5449 5454 5458 5463 5468 5473 5477 5482 5486 5490 5493 5497 5501 5504 5507 5511 5514 5516 5519 5522 5524 5526 5528 5530 5532 5534 5536 5537 5539 5540 5542 5543 5543 5544 5544 5544 5544 5543 5543
5426 5429 5432 5436 5440 5444 5449 5453 5458 5462 5467 5471 5475 5479 5483 5486 5490 5493 5496 5499 5502 5505 5507 5509 5512 5514 5515 5517 5519 5520 5522 5524 5525 5526 5527 5528 5529 5530 5530 5530 5530 5530 5529
5419 5421 5424 5428 5431 5435 5439 5444 5448 5452 5457 5461 5464 5468 5472 5475 5478 5481 5484 5487 5490 5493 5495 5497 5499 5501 5503 5505 5506 5508 5509 5510 5512 5513 5514 5515 5516 5516 5516 5516 5516 5516 5515
5411 5413 5416 5419 5423 5426 5430 5434 5438 5442 5446 5449 5453 5457 5460 5464 5467 5470 5473 5476 5478 5481 5483 5485 5487 5488 5490 5492 5494 5495 5496 5497 5498 5499 5500 5501 5502 5502 5503 5503 5502 5502 5501
5404 5406 5409 5411 5414 5417 5421 5424 5428 5432 5436 5439 5443 5446 5450 5453 5456 5459 5461 5464 5467 5469 5471 5473 5474 5476 5478 5479 5480 5482 5483 5484 5485 5486 5487 5488 5488 5489 5489 5489 5489 5488 5488
5397 5399 5401 5404 5407 5409 5413 5416 5419 5423 5426 5430 5433 5436 5439 5442 5445 5448 5451 5453 5455 5457 5459 5461 5462 5464 5465 5466 5468 5469 5470 5471 5472 5473 5473 5474 5475 5475 5476 5476 5475 5475 5474
5390 5392 5394 5397 5399 5402 5405 5408 5411 5414 5417 5420 5423 5426 5429 5432 5435 5438 5440 5442 5444 5446 5448 5449 5451 5452 5454 5454 5455 5456 5457 5458 5459 5460 5460 5461 5462 5462 5462 5462 5461 5461 5460
5383 5385 5387 5390 5392 5395 5397 5400 5403 5406 5408 5411 5414 5416 5419 5422 5424 5427 5429 5431 5433 5435 5437 5438 5440 5441 5442 5443 5444 5444 5445 5446 5446 5447 5447 5448 5448 5448 5448 5448 5448 5447 5446